Kuchera_Ratio
0.0 0.0 0.0 0.0 0.0 0.0 0.0 0.0 0.0 0.0 0.0 0.0 0.0 0.0 0.0 0.0 0.0 0.0 0.0 0.0 0.0 0.0 0.0 0.0 0.0 0.0 0.0 0.0 0.0 0.0 0.0 0.0
0.0 0.0 0.0 0.0 0.0 0.0 0.0 0.0 0.0 0.0 0.0 0.0 0.0 0.0 0.0 0.0 0.0 0.0 0.0 0.0 0.0 0.0 0.0 0.0 0.0 0.0 0.0 0.0 0.0 0.0 0.0 0.0
0.0 0.0 0.0 0.0 0.0 0.0 0.0 0.0 0.0 0.0 0.0 0.0 0.0 0.0 0.0 0.0 0.0 0.0 0.0 0.0 0.0 0.0 0.0 0.0 0.0 0.0 0.0 0.0 0.0 0.0 0.0 0.0
0.0 0.0 0.0 0.0 0.0 0.0 0.0 0.0 0.0 0.0 0.0 0.0 0.0 0.0 0.0 0.0 0.0 0.0 0.0 0.0 0.0 0.0 0.0 0.0 0.0 0.0 0.0 0.0 0.0 0.0 0.0 0.0
0.0 0.0 0.0 0.0 0.0 0.0 0.0 0.0 0.0 0.0 0.0 0.0 0.0 0.0 0.0 0.0 0.0 0.0 0.0 0.0 0.0 0.0 0.0 0.0 0.0 0.0 0.0 0.0 0.0 0.0 0.0 0.0
0.0 0.0 0.0 0.0 0.0 0.0 0.0 0.0 0.0 0.0 0.0 0.0 0.0 0.0 0.0 0.0 0.0 0.0 0.0 0.0 0.0 0.0 0.0 0.0 0.0 0.0 0.0 0.0 0.0 0.0 0.0 0.0
0.0 0.0 0.0 0.0 0.0 0.0 0.0 0.0 0.0 0.0 0.0 0.0 0.0 0.0 0.0 0.0 0.0 0.0 0.0 0.0 0.0 0.0 0.0 0.0 0.0 0.0 0.0 0.0 0.0 0.0 0.0 0.0
0.0 0.0 0.0 0.0 0.0 0.0 0.0 0.0 0.0 0.0 0.0 0.0 0.0 0.0 0.0 0.0 0.0 0.0 0.0 0.0 0.0 0.0 0.3 0.7 1.0 1.4 0.5 0.0 0.0 0.0 0.0 0.0
0.0 0.0 0.0 0.0 0.0 0.0 0.0 0.0 0.0 0.0 0.0 0.0 0.0 0.0 0.0 0.0 0.0 0.0 0.0 0.0 0.0 0.0 0.0 0.4 1.4 2.1 2.4 1.9 0.9 0.7 0.7 0.0
0.0 0.0 0.0 0.0 0.0 0.0 0.0 0.0 0.0 0.0 0.0 0.0 0.0 0.0 0.0 0.0 0.0 0.0 0.0 0.0 0.4 0.9 1.3 1.6 2.2 3.0 3.5 3.7 3.1 3.1 2.5 0.5
0.0 0.0 0.0 0.0 0.0 0.0 0.0 0.0 0.0 0.0 0.0 0.0 0.0 0.0 0.0 0.0 0.0 0.0 0.0 0.6 1.1 2.3 2.1 3.6 3.6 3.8 4.9 3.1 2.7 4.7 4.3 0.5
0.0 0.0 0.0 0.0 0.0 0.0 0.0 0.0 0.0 0.0 0.0 0.0 0.0 0.0 0.0 0.0 0.0 0.3 1.1 1.7 2.3 3.0 3.8 3.0 3.7 5.6 3.7 4.5 3.5 5.2 5.7 5.3
0.0 0.0 0.0 0.0 0.0 0.0 0.0 0.0 0.0 0.0 0.0 0.0 0.0 0.0 0.0 0.0 0.5 1.2 1.9 2.7 3.8 4.0 5.2 5.6 5.0 6.0 9.0 5.7 6.7 6.2 7.5 5.5
0.0 0.0 0.0 0.0 0.0 0.0 0.0 0.0 0.0 0.0 0.0 0.0 0.0 0.0 0.0 0.0 1.6 2.1 2.5 3.4 3.6 4.3 5.9 8.3 8.2 6.9 10.9 11.5 12.9 9.7 6.9 3.1
0.0 0.0 0.0 0.0 0.0 0.0 0.0 0.0 0.0 0.0 0.4 0.6 1.3 0.0 0.0 0.0 1.1 3.2 3.5 4.4 5.1 5.3 6.3 7.8 11.0 8.6 9.5 11.4 14.8 14.6 12.2 8.5
0.0 0.0 0.0 0.0 0.0 0.0 0.0 1.3 3.3 2.3 2.3 1.4 1.3 0.0 0.1 0.2 1.4 2.9 3.6 4.2 4.6 5.0 4.6 7.9 10.6 11.7 10.5 8.1 10.3 12.1 14.9 14.8
0.0 0.0 0.0 0.0 0.0 0.0 0.0 0.5 1.8 1.7 1.8 2.0 2.1 2.0 0.8 1.0 1.9 3.4 3.7 4.1 4.5 5.3 5.9 7.2 9.4 11.8 12.4 12.2 12.7 12.8 12.6 14.2
0.0 0.0 0.0 0.0 0.0 0.0 0.0 1.1 2.0 2.3 2.6 3.1 2.8 2.3 2.2 2.2 2.8 3.3 3.5 3.9 4.5 5.3 6.2 7.3 9.2 11.3 11.7 12.4 13.8 14.8 14.2 15.1
0.0 0.0 0.0 0.0 0.0 0.0 0.0 0.9 1.2 2.3 3.4 4.4 4.2 4.2 3.9 3.0 3.6 4.0 3.7 3.8 4.5 6.0 7.4 8.4 10.3 12.1 12.2 12.3 11.7 12.7 12.7 13.1
0.0 0.0 0.0 0.0 0.0 0.0 0.0 0.6 1.5 2.1 3.1 3.9 4.1 4.8 4.6 3.8 4.6 4.4 4.3 4.6 5.5 7.2 9.2 10.7 10.9 12.4 12.9 12.6 13.2 13.0 12.6 12.6